Location: Clyde
(45.1830°S, 169.3170°E)
Time: 06:58:06
(UTC+12:00)

Cosmos 2266 Rocket - Pass Details

Date: 14 May 2021
Orbit: 933 x 1009 km, 82.9° (Epoch: 20 June)

Event Time Altitude Azimuth Distance (km) Brightness Sun altitude
Rises 20:06:49 0° 349° (N) 3,583 7.1 -28.5°
Reaches altitude 10° 20:09:16 10° 348° (NNW) 2,649 6.4 -28.9°
Maximum altitude 20:15:19 77° 262° (W) 979 4.0 -30.0°
Drops below altitude 10° 20:21:31 10° 174° (S) 2,713 6.3 -31.1°
Sets 20:24:04 0° 172° (S) 3,675 7.0 -31.5°
